Flag for Norway Weather past 2 weeks in Spydeberg, Norway

Now
55 °F

Scattered showers. Passing clouds.


Feels Like: 52 °F
Forecast: 43 / 58 °F
Wind: 15 mph from Southwest

Location: Rygge

Current Time: May 25, 2015 at 1:47:59 PM

Latest Report: May 25, 2015 at 1:20 PM


Visibility: N/A

Pressure: 29.74 "Hg

Humidity: 67%

Dew point: 45 °F

Location of SpydebergLocation

Historic Weather in Spydeberg — Graph

°F

Spydeberg temperature yesterday

Maximum temperature yesterday: 54 °F (at 12:20 PM)
Minimum temperature yesterday: 36 °F (at 5:20 AM)
Average temperature yesterday: 47 °F

Past Weeks' High & Low Weather Summary

 TemperatureHumidityPressure
High64 °F (May 23, 4:50 PM)100% (May 11, 8:20 PM)30.15 "Hg (May 11, 8:20 PM)
Low34 °F (May 18, 4:50 AM)29% (May 14, 6:50 PM)29.45 "Hg (May 19, 6:50 AM)
Average49 °F72%29.82 "Hg
* Reported May 10 12:20 PM — May 25 12:20 PM, Spydeberg, Weather by CustomWeather, © 2015

Note: Actual official high and low records may vary slightly from our data, if they occured in-between our weather recording intervals... More about our weather records

Advertising

Spydeberg weather history for previous 24 hours

 ConditionsComfort  
Time TempWeatherWind HumidityBarometerVisibility
12:20 PM
Mon, May 25
55 °FPassing clouds.12 mph63%29.74 "HgN/A
11:50 AM55 °FPassing clouds.8 mph59%29.74 "HgN/A
11:20 AM55 °FPassing clouds.10 mph59%29.74 "HgN/A
10:50 AM55 °FPassing clouds.8 mph63%29.74 "HgN/A
10:20 AM54 °FPassing clouds.7 mph63%29.74 "HgN/A
9:50 AM52 °FSunny.7 mph62%29.74 "Hg10 mi
9:20 AM52 °FPassing clouds.6 mph67%29.74 "HgN/A
8:50 AM50 °FPassing clouds.7 mph71%29.71 "HgN/A
8:20 AM50 °FSunny.8 mph76%29.71 "Hg10 mi
7:50 AM50 °FScattered clouds.7 mph82%29.71 "HgN/A
7:20 AM48 °FScattered clouds.6 mph87%29.71 "HgN/A
6:50 AM48 °FBroken clouds.3 mph94%29.71 "HgN/A
6:20 AM48 °FBroken clouds.6 mph94%29.71 "HgN/A
5:50 AM46 °FMostly cloudy.3 mph100%29.71 "HgN/A
5:20 AM46 °FLow clouds.2 mph100%29.71 "HgN/A
4:50 AM46 °FPassing clouds.5 mph93%29.71 "HgN/A
4:20 AM46 °FPassing clouds.5 mph93%29.71 "HgN/A
3:50 AM48 °FMostly cloudy.8 mph94%29.71 "HgN/A
3:20 AM48 °FOvercast.7 mph94%29.71 "HgN/A
2:50 AM48 °FOvercast.5 mph94%29.74 "HgN/A
2:20 AM48 °FMostly cloudy.6 mph94%29.74 "HgN/A
1:50 AM48 °FLow clouds.6 mph100%29.74 "HgN/A
1:20 AM48 °FMostly cloudy.6 mph100%29.74 "HgN/A
12:50 AM48 °FLow clouds.10 mph100%29.74 "HgN/A
12:20 AM48 °FDrizzle. Low clouds.12 mph100%29.77 "Hg2 mi
11:50 PM
Sun, May 24
48 °FDrizzle. Mostly cloudy.13 mph100%29.77 "Hg2 mi
11:20 PM48 °FLight rain. Mostly cloudy.13 mph100%29.80 "Hg2 mi
10:50 PM48 °FDrizzle. Partly sunny.13 mph94%29.80 "Hg4 mi
10:20 PM48 °FDrizzle. Partly sunny.15 mph94%29.80 "Hg5 mi
9:50 PM48 °FDrizzle. Fog.16 mph94%29.83 "Hg3 mi
9:20 PM48 °FLight rain. Fog.14 mph94%29.83 "Hg3 mi
8:50 PM48 °FLight rain. Partly sunny.15 mph94%29.83 "Hg4 mi
7:50 PM48 °FLight rain. Partly sunny.14 mph94%29.86 "Hg6 mi
7:20 PM48 °FLight rain. Partly sunny.14 mph94%29.86 "HgN/A
6:50 PM48 °FRain. Partly sunny.16 mph94%29.86 "Hg5 mi
6:20 PM48 °FLight rain. Partly sunny.15 mph94%29.86 "Hg6 mi
5:50 PM48 °FLight rain. Partly sunny.14 mph94%29.89 "Hg5 mi
5:20 PM48 °FLight rain. Partly sunny.14 mph94%29.89 "HgN/A
4:50 PM48 °FDrizzle. Partly sunny.15 mph94%29.89 "Hg6 mi
4:20 PM48 °FLight rain. Broken clouds.14 mph94%29.92 "HgN/A
3:50 PM50 °FDrizzle. Broken clouds.12 mph88%29.92 "HgN/A
3:20 PM50 °FDrizzle. Partly sunny.13 mph76%29.92 "HgN/A
2:50 PM48 °FDrizzle. Broken clouds.15 mph76%29.92 "HgN/A
2:20 PM50 °FDrizzle. Partly sunny.12 mph71%29.92 "HgN/A
1:50 PM52 °FSunny.15 mph62%29.92 "Hg10 mi
1:20 PM54 °FPassing clouds.13 mph63%29.92 "HgN/A
Weather by CustomWeather, © 2015

See weather overviewHow to use our weather pages